sat.trackr.live / text

‹ back to catalog

STARLINK-4612

NORAD 53750 · 2022-107BC

PAYLOAD ACTIVE UNKNOWN

§ Identity

Operator
Country
US
Launch date
2022-09-05
Launch site
AFETR
Launch vehicle
Mass (kg)
RCS (m²)

Purposes: comms

External: N2YO · Heavens-Above · Gunter

§ Orbital elements

Epoch: 2026-05-24T21:16:47.043840Z

Period
95.44 min
Inclination
53.2118°
Eccentricity
0.0001031
Mean motion
15.08835935 rev/d
Perigee alt
539.0 km
Apogee alt
540.5 km
Semi-major
6,917.9 km
B*
5.0314e-5
RAAN
282.2635°
Arg perigee
94.2806°
Mean anomaly
265.8304°
Rev number
20,610

§ Raw data

STARLINK-46121 53750U 22107BC  26144.88665560  .00000513  00000+0  50314-4 0  99982 53750  53.2118 282.2635 0001031  94.2806 265.8304 15.08835935206108

JSON: /api/v1/satellites/53750 · /tle

For live sub-satellite position, see the globe view (requires WebGL).

§ Visibility from observer

Set your observer location to see the next 7 days of passes ≥ 10°. The values pass through the URL so the page stays shareable.

No JS? Fill the form by hand. The geolocation button needs JavaScript.